Time,TemperatureF,DewpointF,PressureIn,WindDirection,WindDirectionDegrees,WindSpeedMPH,WindSpeedGustMPH,Humidity,HourlyPrecipIn,Conditions,Clouds,dailyrainin,SoftwareType,DateUTC
2013-03-03 00:01:00,43.0,39.0,30.23,West,268,1.0,-999.0,85,-99.99,,,-99.99,,2013-03-03 08:01:00,
2013-03-03 00:11:00,43.0,39.0,30.23,West,268,1.0,-999.0,85,-99.99,,,-99.99,,2013-03-03 08:11:00,
2013-03-03 00:21:00,43.0,39.0,30.24,West,277,1.0,-999.0,86,-99.99,,,-99.99,,2013-03-03 08:21:00,
2013-03-03 00:31:00,42.0,38.0,30.24,West,277,0.0,-999.0,86,-99.99,,,-99.99,,2013-03-03 08:31:00,
2013-03-03 00:41:00,42.0,38.0,30.24,West,277,0.0,-999.0,86,-99.99,,,-99.99,,2013-03-03 08:41:00,
2013-03-03 00:53:00,41.0,37.0,30.24,West,277,0.0,-999.0,86,-99.99,,,-99.99,,2013-03-03 08:53:00,
2013-03-03 01:01:00,41.0,37.0,30.24,West,277,0.0,-999.0,86,-99.99,,,-99.99,,2013-03-03 09:01:00,
2013-03-03 01:11:00,41.0,37.0,30.24,West,277,0.0,-999.0,86,-99.99,,,-99.99,,2013-03-03 09:11:00,
2013-03-03 01:21:00,40.0,37.0,30.25,NNW,327,0.0,-999.0,89,-99.99,,,-99.99,,2013-03-03 09:21:00,
2013-03-03 01:31:00,40.0,37.0,30.26,NW,325,0.0,-999.0,89,-99.99,,,-99.99,,2013-03-03 09:31:00,
2013-03-03 01:41:00,40.0,37.0,30.26,NW,325,0.0,-999.0,89,-99.99,,,-99.99,,2013-03-03 09:41:00,
2013-03-03 01:52:00,40.0,37.0,30.26,WNW,297,0.0,-999.0,90,-99.99,,,-99.99,,2013-03-03 09:52:00,
2013-03-03 02:01:00,39.0,37.0,30.27,WNW,297,0.0,-999.0,91,-99.99,,,-99.99,,2013-03-03 10:01:00,
2013-03-03 02:11:00,39.0,37.0,30.27,WNW,297,0.0,-999.0,91,-99.99,,,-99.99,,2013-03-03 10:11:00,
2013-03-03 02:21:00,39.0,36.0,30.27,NW,306,0.0,-999.0,90,-99.99,,,-99.99,,2013-03-03 10:21:00,
2013-03-03 02:31:00,39.0,37.0,30.27,NW,306,0.0,-999.0,92,-99.99,,,-99.99,,2013-03-03 10:31:00,
2013-03-03 02:41:00,39.0,37.0,30.27,NW,306,0.0,-999.0,92,-99.99,,,-99.99,,2013-03-03 10:41:00,
2013-03-03 02:52:00,38.0,36.0,30.27,West,277,0.0,-999.0,91,-99.99,,,-99.99,,2013-03-03 10:52:00,
2013-03-03 03:01:00,38.0,36.0,30.27,West,279,0.0,-999.0,91,-99.99,,,-99.99,,2013-03-03 11:01:00,
2013-03-03 03:11:00,38.0,36.0,30.27,West,279,0.0,-999.0,91,-99.99,,,-99.99,,2013-03-03 11:11:00,
2013-03-03 03:21:00,37.0,35.0,30.27,West,279,0.0,-999.0,91,-99.99,,,-99.99,,2013-03-03 11:21:00,
2013-03-03 03:31:00,37.0,35.0,30.27,West,279,0.0,-999.0,91,-99.99,,,-99.99,,2013-03-03 11:31:00,
2013-03-03 03:41:00,37.0,35.0,30.27,West,279,0.0,-999.0,91,-99.99,,,-99.99,,2013-03-03 11:41:00,
2013-03-03 03:52:00,36.0,34.0,30.26,West,279,0.0,-999.0,92,-99.99,,,-99.99,,2013-03-03 11:52:00,
2013-03-03 04:01:00,36.0,34.0,30.26,West,279,0.0,-999.0,92,-99.99,,,-99.99,,2013-03-03 12:01:00,
2013-03-03 04:11:00,36.0,34.0,30.26,West,279,0.0,-999.0,92,-99.99,,,-99.99,,2013-03-03 12:11:00,
2013-03-03 04:21:00,35.0,33.0,30.26,West,279,0.0,-999.0,92,-99.99,,,-99.99,,2013-03-03 12:21:00,
2013-03-03 04:31:00,35.0,33.0,30.26,West,279,0.0,-999.0,92,-99.99,,,-99.99,,2013-03-03 12:31:00,
2013-03-03 04:42:00,35.0,33.0,30.26,West,279,0.0,-999.0,92,-99.99,,,-99.99,,2013-03-03 12:42:00,
2013-03-03 04:52:00,34.0,32.0,30.26,West,279,0.0,-999.0,93,-99.99,,,-99.99,,2013-03-03 12:52:00,
2013-03-03 05:01:00,34.0,32.0,30.26,West,279,0.0,-999.0,93,-99.99,,,-99.99,,2013-03-03 13:01:00,
2013-03-03 05:11:00,34.0,32.0,30.26,West,279,0.0,-999.0,93,-99.99,,,-99.99,,2013-03-03 13:11:00,
2013-03-03 05:21:00,34.0,32.0,30.27,West,279,0.0,-999.0,93,-99.99,,,-99.99,,2013-03-03 13:21:00,
2013-03-03 05:31:00,33.0,31.0,30.26,West,279,0.0,-999.0,93,-99.99,,,-99.99,,2013-03-03 13:31:00,
2013-03-03 05:41:00,33.0,31.0,30.26,West,279,0.0,-999.0,93,-99.99,,,-99.99,,2013-03-03 13:41:00,
2013-03-03 05:52:00,33.0,31.0,30.27,West,279,0.0,-999.0,93,-99.99,,,-99.99,,2013-03-03 13:52:00,
2013-03-03 06:01:00,33.0,31.0,30.27,West,279,0.0,-999.0,93,-99.99,,,-99.99,,2013-03-03 14:01:00,
2013-03-03 06:11:00,33.0,31.0,30.27,West,279,0.0,-999.0,93,-99.99,,,-99.99,,2013-03-03 14:11:00,
2013-03-03 06:21:00,32.0,30.0,30.27,West,279,0.0,-999.0,94,-99.99,,,-99.99,,2013-03-03 14:21:00,
2013-03-03 06:31:00,32.0,30.0,30.28,West,279,0.0,-999.0,94,-99.99,,,-99.99,,2013-03-03 14:31:00,
2013-03-03 06:42:00,32.0,30.0,30.28,West,279,0.0,-999.0,94,-99.99,,,-99.99,,2013-03-03 14:42:00,
2013-03-03 06:52:00,32.0,30.0,30.28,West,279,0.0,-999.0,94,-99.99,,,-99.99,,2013-03-03 14:52:00,
2013-03-03 07:01:00,32.0,30.0,30.28,West,279,0.0,-999.0,94,-99.99,,,-99.99,,2013-03-03 15:01:00,
2013-03-03 07:11:00,32.0,30.0,30.28,West,279,0.0,-999.0,94,-99.99,,,-99.99,,2013-03-03 15:11:00,
2013-03-03 07:22:00,32.0,31.0,30.29,West,279,0.0,-999.0,95,-99.99,,,-99.99,,2013-03-03 15:22:00,
2013-03-03 07:31:00,32.0,31.0,30.29,West,279,0.0,-999.0,95,-99.99,,,-99.99,,2013-03-03 15:31:00,
2013-03-03 07:41:00,32.0,31.0,30.29,West,279,0.0,-999.0,95,-99.99,,,-99.99,,2013-03-03 15:41:00,
2013-03-03 07:52:00,32.0,31.0,30.29,West,279,0.0,-999.0,96,-99.99,,,-99.99,,2013-03-03 15:52:00,
2013-03-03 08:01:00,32.0,31.0,30.29,West,279,0.0,-999.0,96,-99.99,,,-99.99,,2013-03-03 16:01:00,
2013-03-03 08:11:00,32.0,31.0,30.29,West,279,0.0,-999.0,96,-99.99,,,-99.99,,2013-03-03 16:11:00,
2013-03-03 08:21:00,34.0,33.0,30.29,West,279,0.0,-999.0,96,-99.99,,,-99.99,,2013-03-03 16:21:00,
2013-03-03 08:31:00,34.0,33.0,30.29,West,279,0.0,-999.0,97,-99.99,,,-99.99,,2013-03-03 16:31:00,
2013-03-03 08:41:00,34.0,33.0,30.29,West,279,0.0,-999.0,97,-99.99,,,-99.99,,2013-03-03 16:41:00,
2013-03-03 08:52:00,36.0,35.0,30.29,West,279,0.0,-999.0,97,-99.99,,,-99.99,,2013-03-03 16:52:00,
2013-03-03 09:01:00,37.0,36.0,30.29,West,279,0.0,-999.0,97,-99.99,,,-99.99,,2013-03-03 17:01:00,
2013-03-03 09:11:00,40.0,39.0,30.29,West,279,0.0,-999.0,95,-99.99,,,-99.99,,2013-03-03 17:11:00,
2013-03-03 09:21:00,40.0,39.0,30.29,West,279,0.0,-999.0,95,-99.99,,,-99.99,,2013-03-03 17:21:00,
2013-03-03 09:32:00,42.0,38.0,30.29,ENE,75,0.0,-999.0,84,-99.99,,,-99.99,,2013-03-03 17:32:00,
2013-03-03 09:41:00,42.0,38.0,30.29,ENE,75,0.0,-999.0,84,-99.99,,,-99.99,,2013-03-03 17:41:00,
2013-03-03 09:52:00,46.0,36.0,30.29,NNE,30,1.0,-999.0,68,-99.99,,,-99.99,,2013-03-03 17:52:00,
2013-03-03 10:01:00,47.0,35.0,30.29,ENE,75,3.0,-999.0,64,-99.99,,,-99.99,,2013-03-03 18:01:00,
2013-03-03 10:11:00,47.0,35.0,30.29,ENE,75,3.0,-999.0,64,-99.99,,,-99.99,,2013-03-03 18:11:00,
2013-03-03 10:21:00,49.0,36.0,30.29,NNE,16,4.0,-999.0,60,-99.99,,,-99.99,,2013-03-03 18:21:00,
2013-03-03 10:31:00,49.0,36.0,30.29,NE,51,4.0,-999.0,60,-99.99,,,-99.99,,2013-03-03 18:31:00,
2013-03-03 10:41:00,49.0,36.0,30.29,NE,51,4.0,-999.0,60,-99.99,,,-99.99,,2013-03-03 18:41:00,
2013-03-03 10:52:00,50.0,36.0,30.29,ESE,107,4.0,-999.0,58,-99.99,,,-99.99,,2013-03-03 18:52:00,
2013-03-03 11:01:00,51.0,35.0,30.29,ENE,57,4.0,-999.0,55,-99.99,,,-99.99,,2013-03-03 19:01:00,
2013-03-03 11:11:00,51.0,35.0,30.29,ENE,57,4.0,-999.0,55,-99.99,,,-99.99,,2013-03-03 19:11:00,
2013-03-03 11:21:00,51.0,35.0,30.29,East,87,4.0,-999.0,55,-99.99,,,-99.99,,2013-03-03 19:21:00,
2013-03-03 11:31:00,51.0,34.0,30.29,East,84,5.0,-999.0,51,-99.99,,,-99.99,,2013-03-03 19:31:00,
2013-03-03 11:42:00,51.0,34.0,30.29,East,84,5.0,-999.0,51,-99.99,,,-99.99,,2013-03-03 19:42:00,
2013-03-03 11:52:00,51.0,33.0,30.28,NE,53,4.0,-999.0,50,-99.99,,,-99.99,,2013-03-03 19:52:00,
2013-03-03 12:01:00,52.0,34.0,30.28,East,99,4.0,-999.0,50,-99.99,,,-99.99,,2013-03-03 20:01:00,
2013-03-03 12:11:00,52.0,34.0,30.28,East,99,4.0,-999.0,50,-99.99,,,-99.99,,2013-03-03 20:11:00,
2013-03-03 12:21:00,52.0,33.0,30.27,ENE,64,3.0,-999.0,49,-99.99,,,-99.99,,2013-03-03 20:21:00,
2013-03-03 12:32:00,52.0,34.0,30.27,East,88,6.0,-999.0,50,-99.99,,,-99.99,,2013-03-03 20:32:00,
2013-03-03 12:42:00,52.0,34.0,30.27,East,88,6.0,-999.0,50,-99.99,,,-99.99,,2013-03-03 20:42:00,
2013-03-03 12:52:00,52.0,34.0,30.26,North,9,2.0,-999.0,51,-99.99,,,-99.99,,2013-03-03 20:52:00,
2013-03-03 13:01:00,53.0,33.0,30.26,ESE,111,4.0,-999.0,47,-99.99,,,-99.99,,2013-03-03 21:01:00,
2013-03-03 13:11:00,53.0,33.0,30.26,ESE,111,4.0,-999.0,47,-99.99,,,-99.99,,2013-03-03 21:11:00,
2013-03-03 13:21:00,52.0,31.0,30.26,North,350,6.0,-999.0,45,-99.99,,,-99.99,,2013-03-03 21:21:00,
2013-03-03 13:31:00,52.0,31.0,30.25,North,5,4.0,-999.0,45,-99.99,,,-99.99,,2013-03-03 21:31:00,
2013-03-03 13:41:00,52.0,31.0,30.25,North,5,4.0,-999.0,45,-99.99,,,-99.99,,2013-03-03 21:41:00,
2013-03-03 13:52:00,53.0,32.0,30.24,ENE,78,4.0,-999.0,44,-99.99,,,-99.99,,2013-03-03 21:52:00,
2013-03-03 14:01:00,53.0,33.0,30.24,NE,37,5.0,-999.0,46,-99.99,,,-99.99,,2013-03-03 22:01:00,
2013-03-03 14:11:00,53.0,33.0,30.24,NE,37,5.0,-999.0,46,-99.99,,,-99.99,,2013-03-03 22:11:00,
2013-03-03 14:21:00,53.0,32.0,30.24,NE,44,6.0,-999.0,44,-99.99,,,-99.99,,2013-03-03 22:21:00,
2013-03-03 14:31:00,52.0,31.0,30.24,NNE,23,5.0,-999.0,44,-99.99,,,-99.99,,2013-03-03 22:31:00,
2013-03-03 14:41:00,52.0,31.0,30.24,NNE,23,5.0,-999.0,44,-99.99,,,-99.99,,2013-03-03 22:41:00,
2013-03-03 14:52:00,53.0,32.0,30.23,ENE,68,5.0,-999.0,44,-99.99,,,-99.99,,2013-03-03 22:52:00,
2013-03-03 15:01:00,53.0,30.0,30.24,ENE,77,5.0,-999.0,41,-99.99,,,-99.99,,2013-03-03 23:01:00,
2013-03-03 15:11:00,53.0,30.0,30.24,ENE,77,5.0,-999.0,41,-99.99,,,-99.99,,2013-03-03 23:11:00,
2013-03-03 15:21:00,53.0,32.0,30.24,ENE,65,4.0,-999.0,44,-99.99,,,-99.99,,2013-03-03 23:21:00,
2013-03-03 15:31:00,53.0,32.0,30.24,ENE,67,6.0,-999.0,44,-99.99,,,-99.99,,2013-03-03 23:31:00,
2013-03-03 15:41:00,53.0,32.0,30.24,ENE,67,6.0,-999.0,44,-99.99,,,-99.99,,2013-03-03 23:41:00,
2013-03-03 15:52:00,52.0,30.0,30.24,NNW,346,6.0,-999.0,43,-99.99,,,-99.99,,2013-03-03 23:52:00,
2013-03-03 16:01:00,52.0,31.0,30.23,NNW,342,4.0,-999.0,44,-99.99,,,-99.99,,2013-03-04 00:01:00,
2013-03-03 16:11:00,52.0,31.0,30.23,NNW,342,4.0,-999.0,44,-99.99,,,-99.99,,2013-03-04 00:11:00,
2013-03-03 16:21:00,52.0,29.0,30.23,NNE,25,5.0,-999.0,41,-99.99,,,-99.99,,2013-03-04 00:21:00,
2013-03-03 16:31:00,52.0,30.0,30.22,ENE,63,5.0,-999.0,42,-99.99,,,-99.99,,2013-03-04 00:31:00,
2013-03-03 16:41:00,52.0,30.0,30.22,ENE,63,5.0,-999.0,42,-99.99,,,-99.99,,2013-03-04 00:41:00,
2013-03-03 16:52:00,51.0,30.0,30.22,NNW,346,5.0,-999.0,44,-99.99,,,-99.99,,2013-03-04 00:52:00,
2013-03-03 17:01:00,51.0,30.0,30.22,NNW,346,5.0,-999.0,44,-99.99,,,-99.99,,2013-03-04 01:01:00,
2013-03-03 17:11:00,51.0,30.0,30.22,NNW,346,5.0,-999.0,44,-99.99,,,-99.99,,2013-03-04 01:11:00,
2013-03-03 17:21:00,49.0,29.0,30.21,NE,40,4.0,-999.0,46,-99.99,,,-99.99,,2013-03-04 01:21:00,
2013-03-03 17:31:00,49.0,30.0,30.21,North,350,3.0,-999.0,47,-99.99,,,-99.99,,2013-03-04 01:31:00,
2013-03-03 17:42:00,49.0,30.0,30.21,North,350,3.0,-999.0,47,-99.99,,,-99.99,,2013-03-04 01:42:00,
2013-03-03 17:52:00,49.0,31.0,30.21,NNE,23,3.0,-999.0,50,-99.99,,,-99.99,,2013-03-04 01:52:00,
2013-03-03 18:01:00,48.0,31.0,30.21,NNE,19,4.0,-999.0,51,-99.99,,,-99.99,,2013-03-04 02:01:00,
2013-03-03 18:11:00,48.0,31.0,30.21,NNE,19,4.0,-999.0,51,-99.99,,,-99.99,,2013-03-04 02:11:00,
2013-03-03 18:22:00,47.0,31.0,30.21,NNE,15,2.0,-999.0,53,-99.99,,,-99.99,,2013-03-04 02:22:00,
2013-03-03 18:31:00,47.0,31.0,30.21,North,360,1.0,-999.0,54,-99.99,,,-99.99,,2013-03-04 02:31:00,
2013-03-03 18:41:00,47.0,31.0,30.21,North,360,1.0,-999.0,54,-99.99,,,-99.99,,2013-03-04 02:41:00,
2013-03-03 18:52:00,46.0,32.0,30.21,NNE,13,0.0,-999.0,57,-99.99,,,-99.99,,2013-03-04 02:52:00,
2013-03-03 19:01:00,45.0,31.0,30.21,NNE,13,0.0,-999.0,58,-99.99,,,-99.99,,2013-03-04 03:01:00,
2013-03-03 19:11:00,45.0,31.0,30.21,NNE,13,0.0,-999.0,58,-99.99,,,-99.99,,2013-03-04 03:11:00,
2013-03-03 19:21:00,44.0,32.0,30.21,NNE,13,0.0,-999.0,63,-99.99,,,-99.99,,2013-03-04 03:21:00,
2013-03-03 19:31:00,42.0,31.0,30.22,NNE,13,0.0,-999.0,66,-99.99,,,-99.99,,2013-03-04 03:31:00,
2013-03-03 19:41:00,41.0,33.0,30.21,NW,314,0.0,-999.0,73,-99.99,,,-99.99,,2013-03-04 03:41:00,
2013-03-03 19:52:00,41.0,33.0,30.21,NW,314,0.0,-999.0,73,-99.99,,,-99.99,,2013-03-04 03:52:00,
2013-03-03 20:01:00,40.0,33.0,30.21,WNW,293,0.0,-999.0,76,-99.99,,,-99.99,,2013-03-04 04:01:00,
2013-03-03 20:11:00,40.0,33.0,30.21,WNW,293,0.0,-999.0,76,-99.99,,,-99.99,,2013-03-04 04:11:00,
2013-03-03 20:21:00,39.0,33.0,30.21,WNW,293,0.0,-999.0,79,-99.99,,,-99.99,,2013-03-04 04:21:00,
2013-03-03 20:31:00,39.0,33.0,30.21,WNW,293,0.0,-999.0,79,-99.99,,,-99.99,,2013-03-04 04:31:00,
2013-03-03 20:41:00,39.0,33.0,30.21,WNW,293,0.0,-999.0,79,-99.99,,,-99.99,,2013-03-04 04:41:00,
2013-03-03 20:52:00,38.0,32.0,30.21,WNW,293,0.0,-999.0,80,-99.99,,,-99.99,,2013-03-04 04:52:00,
2013-03-03 21:01:00,37.0,31.0,30.21,WNW,293,0.0,-999.0,80,-99.99,,,-99.99,,2013-03-04 05:01:00,
2013-03-03 21:11:00,37.0,31.0,30.21,WNW,293,0.0,-999.0,80,-99.99,,,-99.99,,2013-03-04 05:11:00,
2013-03-03 21:22:00,37.0,32.0,30.20,WNW,293,0.0,-999.0,82,-99.99,,,-99.99,,2013-03-04 05:22:00,
2013-03-03 21:31:00,37.0,32.0,30.20,WNW,293,0.0,-999.0,82,-99.99,,,-99.99,,2013-03-04 05:31:00,
2013-03-03 21:42:00,37.0,32.0,30.20,WNW,293,0.0,-999.0,82,-99.99,,,-99.99,,2013-03-04 05:42:00,
2013-03-03 21:52:00,37.0,32.0,30.21,West,271,0.0,-999.0,83,-99.99,,,-99.99,,2013-03-04 05:52:00,
2013-03-03 22:01:00,36.0,31.0,30.21,West,271,0.0,-999.0,83,-99.99,,,-99.99,,2013-03-04 06:01:00,
2013-03-03 22:11:00,36.0,31.0,30.21,West,271,0.0,-999.0,83,-99.99,,,-99.99,,2013-03-04 06:11:00,
2013-03-03 22:21:00,36.0,31.0,30.20,West,271,0.0,-999.0,83,-99.99,,,-99.99,,2013-03-04 06:21:00,
2013-03-03 22:31:00,36.0,31.0,30.20,WNW,289,0.0,-999.0,83,-99.99,,,-99.99,,2013-03-04 06:31:00,
2013-03-03 22:42:00,36.0,31.0,30.20,WNW,289,0.0,-999.0,83,-99.99,,,-99.99,,2013-03-04 06:42:00,
2013-03-03 22:51:00,35.0,31.0,30.19,WNW,289,0.0,-999.0,86,-99.99,,,-99.99,,2013-03-04 06:51:00,
2013-03-03 23:01:00,35.0,31.0,30.19,WNW,289,0.0,-999.0,86,-99.99,,,-99.99,,2013-03-04 07:01:00,
2013-03-03 23:11:00,35.0,31.0,30.19,WNW,289,0.0,-999.0,86,-99.99,,,-99.99,,2013-03-04 07:11:00,
2013-03-03 23:21:00,35.0,31.0,30.19,North,5,0.0,-999.0,86,-99.99,,,-99.99,,2013-03-04 07:21:00,
2013-03-03 23:31:00,34.0,30.0,30.19,North,5,0.0,-999.0,86,-99.99,,,-99.99,,2013-03-04 07:31:00,
2013-03-03 23:41:00,34.0,30.0,30.19,North,5,0.0,-999.0,86,-99.99,,,-99.99,,2013-03-04 07:41:00,
2013-03-03 23:52:00,34.0,31.0,30.19,North,5,0.0,-999.0,87,-99.99,,,-99.99,,2013-03-04 07:52:00,